Regional Weather Roundup
Issued by NWS

Home | Current Version | Previous Version | Text Only | Print | Product List | Glossary On
Versions: 1 2 3 4 5 6 7 8 9 10 11 12 13 14 15 16 17 18 19 20 21 22 23 24 25 26 27 28 29 30 31 32 33 34 35 36 37 38 39 40 41 42 43 44 45 46 47 48 49 50
000
ASUS43 KOAX 240410
RWRNE

WEATHER ROUNDUP FOR NEBRASKA
NATIONAL WEATHER SERVICE OMAHA NE
1000 PM CST TUE JAN 23 2018

NOTES: SATELLITE DATA IS BEING USED TO AUGMENT CLOUD COVER ABOVE
       12000 FEET.
       "FAIR" INDICATES FEW OR NO CLOUDS BELOW 12,000 FEET WITH NO
       SIGNIFICANT WEATHER AND/OR OBSTRUCTIONS TO VISIBILITY.


NEZ001>004-019>022-054>056-240500-
NEBRASKA PANHANDLE

CITY           SKY/WX    TMP DP  RH WIND       PRES   REMARKS
SCOTTSBLUFF    CLEAR     16  11  80 CALM      30.25F
ALLIANCE       CLEAR     11   7  84 W10       30.23F WCI  -3
CHADRON        CLEAR     13   8  81 W12       30.24R WCI  -1
GORDON         FAIR      22  13  69 W9        30.21R WCI  12
KIMBALL        CLEAR     20  12  73 W5        30.24S WCI  13
SIDNEY         CLEAR     14   9  80 NW6       30.26S WCI   5
$$

NEZ057>060-069>072-079>082-240500-
SOUTHWEST NEBRASKA

CITY           SKY/WX    TMP DP  RH WIND       PRES   REMARKS
NORTH PLATTE   CLEAR     20  14  77 W9        30.28R WCI   9
IMPERIAL       CLEAR     22  15  75 W10       30.29R WCI  11
LEXINGTON      CLEAR     24  19  81 NW10      30.27S WCI  13
MCCOOK         CLEAR     27  20  75 W16       30.29S WCI  15
OGALLALA       CLEAR     28  19  66 NW16      30.26F WCI  17
$$

NEZ005>010-023>029-035>040-094-240500-
NORTH CENTRAL NEBRASKA

CITY           SKY/WX    TMP DP  RH WIND       PRES   REMARKS
VALENTINE      CLEAR     22  16  78 SW7       30.22R WCI  13
AINSWORTH      CLEAR     25  20  83 W7        30.21S WCI  17
BROKEN BOW     CLEAR     30  20  66 NW17      30.23R WCI  18
O`NEILL        CLEAR     29  24  81 W9        30.20R WCI  20
ORD            CLEAR     30  22  72 W10       30.22R WCI  21
THEDFORD       CLEAR     23  18  83 W8        30.25S WCI  13
$$

NEZ041-046>049-061>064-073>077-083>087-240500-
SOUTH CENTRAL NEBRASKA

CITY           SKY/WX    TMP DP  RH WIND       PRES   REMARKS
GRAND ISLAND   CLEAR     27  23  85 W13       30.23R WCI  16
AURORA         CLEAR     29  26  86 W13       30.22S WCI  19
HASTINGS       CLEAR     30  25  81 W14       30.24S WCI  19
HEBRON         CLOUDY    32  29  88 W5        30.26R WCI  28
HOLDREGE       CLEAR     30  25  82 W10       30.27R WCI  21
KEARNEY        CLEAR     30  24  78 W10       30.26R WCI  21
YORK           CLEAR     30  30 100 W15       30.22R WCI  19
$$

NEZ011>018-030>034-042>045-240500-
NORTHEAST NEBRASKA

CITY           SKY/WX    TMP DP  RH WIND       PRES   REMARKS
ALBION         CLEAR     30  24  78 NW8       30.20S WCI  22
BLAIR          CLOUDY    21  20  94 S3        30.19R FOG
COLUMBUS       CLEAR     20  19  96 W7        30.22R WCI  11
FREMONT        FOG       19  18  99 CALM      30.21R VSB 1/2
TEKAMAH        CLEAR     17  16  95 S3        30.21S
WAYNE          CLEAR     12  11  96 CALM      30.19R
$$

NEZ050>053-065>068-078-088>093-240500-
SOUTHEAST NEBRASKA

CITY           SKY/WX    TMP DP  RH WIND       PRES   REMARKS
LINCOLN        CLEAR     28  24  85 NW3       30.23R
OMAHA EPPLEY   CLOUDY    23  19  85 S8        30.22S WCI  14
BEATRICE       CLEAR     31  28  88 W9        30.24R WCI  23
FALLS CITY     PTCLDY    28  23  81 S3        30.24R
NEBRASKA CITY  PTCLDY    23  23 100 S5        30.22R WCI  17
PLATTSMOUTH    CLEAR     23  22  96 S3        30.21S FOG
$$

NEZ044-045-051>053-067-240500-
OMAHA AREA

CITY           SKY/WX    TMP DP  RH WIND       PRES   REMARKS
OMAHA EPPLEY   CLOUDY    23  19  85 S8        30.22S WCI  14
BLAIR          CLOUDY    21  20  94 S3        30.19R FOG
FREMONT        FOG       19  18  99 CALM      30.21R VSB 1/2
MILLARD        CLEAR     23  21  93 CALM      30.22S FOG
OFFUTT AFB     CLEAR     18  16  92 CALM      30.21S
PLATTSMOUTH    CLEAR     23  22  96 S3        30.21S FOG
WAHOO            N/A     20  19  94 CALM      30.21R FOG
$$



USA.gov is the U.S. government's official web portal to all federal, state and local government web resources and services.